,,PA_Meas_PMT16A,,PR_Meas_QMR101_102,,RH_Meas_QMH101,,SR_Meas_QMS101,,TA_Meas_QMH101,,GenWind,,GenWind,
time,status,PA,status,PR,status,RH,status,SR,status,TA,status,DirAvg,status,SpdAvg,
2014-01-16, 00:00:05,VALID,920.187,VALID,0,VALID,92.3119,VALID,0.107441,VALID,19.4298,VALID,141,VALID,1.26563,
2014-01-16, 00:01:05,VALID,920.168,VALID,0,VALID,92.3196,VALID,0.107441,VALID,19.4298,VALID,124,VALID,1.43945,
2014-01-16, 00:02:05,VALID,920.174,VALID,0,VALID,92.3958,VALID,0,VALID,19.3713,VALID,123,VALID,1.38164,
2014-01-16, 00:03:05,VALID,920.192,VALID,0,VALID,92.5025,VALID,0,VALID,19.3713,VALID,114,VALID,1.08164,
2014-01-16, 00:04:05,VALID,920.222,VALID,0,VALID,92.6016,VALID,0.107441,VALID,19.3323,VALID,131,VALID,0.864062,
2014-01-16, 00:05:05,VALID,920.178,VALID,0,VALID,92.7007,VALID,0,VALID,19.3128,VALID,131,VALID,0.858984,
2014-01-16, 00:06:05,VALID,920.17,VALID,0,VALID,92.8151,VALID,0.107441,VALID,19.3533,VALID,129,VALID,1.0543,
2014-01-16, 00:07:05,VALID,920.14,VALID,0,VALID,92.8227,VALID,0.107441,VALID,19.3128,VALID,133,VALID,0.370703,
2014-01-16, 00:08:05,VALID,920.156,VALID,0,VALID,92.8913,VALID,0.107441,VALID,19.2918,VALID,138,VALID,0.578125,
2014-01-16, 00:09:05,VALID,920.129,VALID,0,VALID,92.9676,VALID,0.107441,VALID,19.2933,VALID,143,VALID,0.93125,
2014-01-16, 00:10:05,VALID,920.122,VALID,0,VALID,92.9523,VALID,0.107441,VALID,19.2738,VALID,139,VALID,0.865625,
2014-01-16, 00:11:05,VALID,920.115,VALID,0,VALID,93.0438,VALID,0,VALID,19.2543,VALID,145,VALID,0.664063,
2014-01-16, 00:12:05,VALID,920.152,VALID,0,VALID,93.0133,VALID,0,VALID,19.2348,VALID,145,VALID,0.646875,
2014-01-16, 00:13:05,VALID,920.154,VALID,0,VALID,93.0819,VALID,0.107441,VALID,19.2153,VALID,144,VALID,0.328906,
2014-01-16, 00:14:05,VALID,920.146,VALID,0,VALID,93.1581,VALID,0,VALID,19.1958,VALID,145,VALID,0.672266,
2014-01-16, 00:15:05,VALID,920.122,VALID,0,VALID,93.1886,VALID,0,VALID,19.1763,VALID,150,VALID,0.784375,
2014-01-16, 00:16:05,VALID,920.121,VALID,0,VALID,93.2115,VALID,0.107441,VALID,19.1763,VALID,150,VALID,0.215625,
2014-01-16, 00:17:05,VALID,920.083,VALID,0,VALID,93.2572,VALID,0.107441,VALID,19.1568,VALID,150,VALID,0,
2014-01-16, 00:18:05,VALID,920.076,VALID,0,VALID,93.2039,VALID,0.107441,VALID,19.1359,VALID,150,VALID,0,
2014-01-16, 00:19:05,VALID,920.012,VALID,0,VALID,93.242,VALID,0,VALID,19.1164,VALID,150,VALID,0,
2014-01-16, 00:20:05,VALID,920.014,VALID,0,VALID,93.2954,VALID,0,VALID,19.1178,VALID,150,VALID,0.489453,
2014-01-16, 00:21:05,VALID,919.981,VALID,0,VALID,93.3487,VALID,0,VALID,19.1193,VALID,150,VALID,0.154687,
2014-01-16, 00:22:05,VALID,919.973,VALID,0,VALID,93.4326,VALID,0,VALID,19.0788,VALID,150,VALID,0.788281,
2014-01-16, 00:23:05,VALID,919.985,VALID,0,VALID,93.5469,VALID,0.107441,VALID,19.0593,VALID,148,VALID,0.132813,
2014-01-16, 00:24:05,VALID,919.975,VALID,0,VALID,93.6079,VALID,0,VALID,19.0398,VALID,148,VALID,0.512109,
2014-01-16, 00:25:05,VALID,919.947,VALID,0,VALID,93.6842,VALID,0,VALID,19.0398,VALID,147,VALID,0.482422,
2014-01-16, 00:26:05,VALID,919.946,VALID,0,VALID,93.7756,VALID,0,VALID,19.0008,VALID,147,VALID,0.0847656,
2014-01-16, 00:27:05,VALID,919.931,VALID,0,VALID,93.8519,VALID,0.107441,VALID,19.0008,VALID,147,VALID,0.366016,
2014-01-16, 00:28:05,VALID,919.919,VALID,0,VALID,93.9434,VALID,0.107441,VALID,19.0008,VALID,147,VALID,0.101953,
2014-01-16, 00:29:05,VALID,919.889,VALID,0,VALID,93.9205,VALID,0,VALID,19.0008,VALID,147,VALID,0.299609,
2014-01-16, 00:30:05,VALID,919.868,VALID,0,VALID,93.9586,VALID,0,VALID,19.0008,VALID,147,VALID,0.239844,
2014-01-16, 00:31:05,VALID,919.853,VALID,0,VALID,93.8824,VALID,0.107441,VALID,19.0008,VALID,134,VALID,0.782812,
2014-01-16, 00:32:05,VALID,919.84,VALID,0,VALID,93.89,VALID,0,VALID,18.9814,VALID,123,VALID,0.533203,
2014-01-16, 00:33:05,VALID,919.818,VALID,0,VALID,94.0196,VALID,0,VALID,18.9619,VALID,122,VALID,0.489453,
2014-01-16, 00:34:05,VALID,919.822,VALID,0,VALID,94.1721,VALID,0,VALID,18.9619,VALID,122,VALID,0.690625,
2014-01-16, 00:35:05,VALID,919.796,VALID,0,VALID,94.6218,VALID,0,VALID,19.0008,VALID,115,VALID,1.13242,
2014-01-16, 00:36:05,VALID,919.783,VALID,0,VALID,94.7057,VALID,0,VALID,19.0593,VALID,112,VALID,0.671875,
2014-01-16, 00:37:05,VALID,919.786,VALID,0,VALID,94.5837,VALID,0,VALID,19.0593,VALID,102,VALID,1.10859,
2014-01-16, 00:38:05,VALID,919.757,VALID,0,VALID,94.4389,VALID,0,VALID,19.0593,VALID,100,VALID,0.580078,
2014-01-16, 00:39:05,VALID,919.716,VALID,0,VALID,94.538,VALID,0.107441,VALID,19.0788,VALID,123,VALID,1.20234,
2014-01-16, 00:40:05,VALID,919.712,VALID,0,VALID,94.2026,VALID,0.107441,VALID,19.0788,VALID,115,VALID,0.550781,
2014-01-16, 00:41:05,VALID,919.672,VALID,0,VALID,94.2102,VALID,0.107441,VALID,19.0788,VALID,115,VALID,0.456641,
2014-01-16, 00:42:05,VALID,919.679,VALID,0,VALID,94.1111,VALID,0,VALID,19.0593,VALID,115,VALID,0.432813,
2014-01-16, 00:43:05,VALID,919.641,VALID,0,VALID,94.3931,VALID,0.107441,VALID,19.0983,VALID,116,VALID,1.0918,
2014-01-16, 00:44:05,VALID,919.607,VALID,0,VALID,94.4922,VALID,0.107441,VALID,19.1178,VALID,103,VALID,0.314844,
2014-01-16, 00:45:05,VALID,919.602,VALID,0,VALID,94.3931,VALID,0,VALID,19.1178,VALID,103,VALID,0.295312,
2014-01-16, 00:46:05,VALID,919.631,VALID,0,VALID,94.2178,VALID,0,VALID,19.0983,VALID,103,VALID,0.446094,
2014-01-16, 00:47:05,VALID,919.565,VALID,0,VALID,94.1797,VALID,0,VALID,19.1193,VALID,103,VALID,0,
2014-01-16, 00:48:05,VALID,919.573,VALID,0,VALID,94.2102,VALID,0.107441,VALID,19.1193,VALID,104,VALID,0.459375,
2014-01-16, 00:49:05,VALID,919.549,VALID,0,VALID,94.1416,VALID,0,VALID,19.0593,VALID,103,VALID,0.401953,
2014-01-16, 00:50:05,VALID,919.569,VALID,0,VALID,94.3703,VALID,0,VALID,19.0788,VALID,103,VALID,0.379687,
2014-01-16, 00:51:05,VALID,919.563,VALID,0,VALID,94.4008,VALID,0.107441,VALID,19.0593,VALID,103,VALID,0.395703,
2014-01-16, 00:52:05,VALID,919.566,VALID,0,VALID,94.3169,VALID,0,VALID,19.0398,VALID,105,VALID,0.498047,
2014-01-16, 00:53:05,VALID,919.554,VALID,0,VALID,94.1949,VALID,0,VALID,19.0008,VALID,104,VALID,0.788281,
2014-01-16, 00:54:05,VALID,919.531,VALID,0,VALID,94.4922,VALID,0,VALID,19.0008,VALID,107,VALID,0.944141,
2014-01-16, 00:55:05,VALID,919.536,VALID,0,VALID,94.6371,VALID,0,VALID,19.0203,VALID,93,VALID,0.596484,
2014-01-16, 00:56:05,VALID,919.522,VALID,0,VALID,94.6142,VALID,0,VALID,19.0398,VALID,120,VALID,1.03711,
2014-01-16, 00:57:05,VALID,919.458,VALID,0,VALID,94.6371,VALID,0,VALID,19.1402,VALID,141,VALID,1.47812,
2014-01-16, 00:58:05,VALID,919.436,VALID,0,VALID,94.6295,VALID,0,VALID,19.1987,VALID,112,VALID,0.979297,
2014-01-16, 00:59:05,VALID,919.436,VALID,0,VALID,94.4541,VALID,0,VALID,19.2587,VALID,143,VALID,0.712891,
2014-01-16, 01:00:05,VALID,919.419,VALID,0,VALID,94.1339,VALID,0,VALID,19.2334,VALID,100,VALID,1.7793,
2014-01-16, 01:01:05,VALID,919.405,VALID,0,VALID,93.8061,VALID,0,VALID,19.3547,VALID,110,VALID,1.44687,
2014-01-16, 01:02:05,VALID,919.377,VALID,0,VALID,93.5393,VALID,0,VALID,19.3923,VALID,129,VALID,2.23164,
2014-01-16, 01:03:05,VALID,919.396,VALID,0,VALID,93.2572,VALID,0,VALID,19.3893,VALID,118,VALID,1.81641,
2014-01-16, 01:04:05,VALID,919.378,VALID,0,VALID,93.0819,VALID,0,VALID,19.3893,VALID,79,VALID,0.310937,
2014-01-16, 01:05:05,VALID,919.355,VALID,0,VALID,93.0362,VALID,0,VALID,19.4298,VALID,121,VALID,1.33359,
2014-01-16, 01:06:05,VALID,919.336,VALID,0,VALID,93.0057,VALID,0,VALID,19.4103,VALID,116,VALID,0.462109,
2014-01-16, 01:07:05,VALID,919.318,VALID,0,VALID,92.9676,VALID,0,VALID,19.4313,VALID,115,VALID,1.25703,
2014-01-16, 01:08:05,VALID,919.299,VALID,0,VALID,92.9981,VALID,0.107441,VALID,19.4118,VALID,101,VALID,1.67578,
2014-01-16, 01:09:05,VALID,919.296,VALID,0,VALID,93.0057,VALID,0,VALID,19.3923,VALID,96,VALID,1.62617,
2014-01-16, 01:10:05,VALID,919.31,VALID,0,VALID,93.0743,VALID,0.107441,VALID,19.3713,VALID,124,VALID,1.63867,
2014-01-16, 01:11:05,VALID,919.27,VALID,0,VALID,93.1505,VALID,0,VALID,19.3728,VALID,112,VALID,1.47578,
2014-01-16, 01:12:05,VALID,919.294,VALID,0,VALID,93.2954,VALID,0,VALID,19.3323,VALID,125,VALID,1.2082,
2014-01-16, 01:13:05,VALID,919.292,VALID,0,VALID,93.4707,VALID,0,VALID,19.3128,VALID,144,VALID,1.10391,
2014-01-16, 01:14:05,VALID,919.306,VALID,0,VALID,93.6155,VALID,0,VALID,19.3128,VALID,152,VALID,0.988281,
2014-01-16, 01:15:05,VALID,919.309,VALID,0,VALID,93.6994,VALID,0,VALID,19.2933,VALID,142,VALID,0.651172,
2014-01-16, 01:16:05,VALID,919.312,VALID,0,VALID,93.8443,VALID,0,VALID,19.2948,VALID,131,VALID,1.12383,
2014-01-16, 01:17:05,VALID,919.317,VALID,0,VALID,94.0348,VALID,0,VALID,19.2543,VALID,165,VALID,0.747656,
2014-01-16, 01:18:05,VALID,919.297,VALID,0,VALID,94.1949,VALID,0,VALID,19.2348,VALID,144,VALID,0.623438,
2014-01-16, 01:19:05,VALID,919.306,VALID,0,VALID,94.3931,VALID,0,VALID,19.2348,VALID,146,VALID,0.798047,
2014-01-16, 01:20:05,VALID,919.294,VALID,0,VALID,94.538,VALID,0,VALID,19.2153,VALID,148,VALID,0.728516,
2014-01-16, 01:21:05,VALID,919.293,VALID,0,VALID,94.6066,VALID,0,VALID,19.2153,VALID,142,VALID,0.866797,
2014-01-16, 01:22:05,VALID,919.307,VALID,0,VALID,94.66,VALID,0,VALID,19.2558,VALID,150,VALID,0.655469,
2014-01-16, 01:23:05,VALID,919.297,VALID,0,VALID,94.6752,VALID,0.107441,VALID,19.2348,VALID,139,VALID,1.09414,
2014-01-16, 01:24:05,VALID,919.307,VALID,0,VALID,94.6981,VALID,0,VALID,19.2348,VALID,137,VALID,0.786328,
2014-01-16, 01:25:05,VALID,919.303,VALID,0,VALID,94.7133,VALID,0,VALID,19.2543,VALID,149,VALID,0.694531,
2014-01-16, 01:26:05,VALID,919.302,VALID,0,VALID,94.7057,VALID,0,VALID,19.2543,VALID,127,VALID,1.12344,
2014-01-16, 01:27:05,VALID,919.261,VALID,0,VALID,94.6905,VALID,0,VALID,19.2738,VALID,108,VALID,1.46992,
2014-01-16, 01:28:05,VALID,919.257,VALID,0,VALID,94.6371,VALID,0,VALID,19.3143,VALID,117,VALID,0.976563,
2014-01-16, 01:29:05,VALID,919.22,VALID,0,VALID,94.5456,VALID,0.107441,VALID,19.2933,VALID,118,VALID,1.09922,
2014-01-16, 01:30:05,VALID,919.218,VALID,0,VALID,94.4617,VALID,0,VALID,19.3352,VALID,124,VALID,0.939844,
2014-01-16, 01:31:05,VALID,919.191,VALID,0,VALID,94.4236,VALID,0,VALID,19.3143,VALID,114,VALID,0.750781,
2014-01-16, 01:32:05,VALID,919.166,VALID,0,VALID,94.3931,VALID,0,VALID,19.3143,VALID,124,VALID,0.755469,
2014-01-16, 01:33:05,VALID,919.2,VALID,0,VALID,94.4465,VALID,0,VALID,19.3143,VALID,125,VALID,1.09023,
2014-01-16, 01:34:05,VALID,919.195,VALID,0,VALID,94.5075,VALID,0,VALID,19.2948,VALID,126,VALID,0.417188,
2014-01-16, 01:35:05,VALID,919.164,VALID,0,VALID,94.5609,VALID,0,VALID,19.3143,VALID,136,VALID,0.798047,
2014-01-16, 01:36:05,VALID,919.167,VALID,0,VALID,94.5913,VALID,0,VALID,19.3352,VALID,121,VALID,1.10781,
2014-01-16, 01:37:05,VALID,919.162,VALID,0,VALID,94.6218,VALID,0,VALID,19.3143,VALID,139,VALID,1.07539,
2014-01-16, 01:38:05,VALID,919.136,VALID,0,VALID,94.6142,VALID,0,VALID,19.3143,VALID,131,VALID,1.06016,
2014-01-16, 01:39:05,VALID,919.153,VALID,0,VALID,94.6447,VALID,0,VALID,19.3338,VALID,126,VALID,0.772266,
2014-01-16, 01:40:05,VALID,919.101,VALID,0,VALID,94.6676,VALID,0,VALID,19.3533,VALID,126,VALID,0.413281,
2014-01-16, 01:41:05,VALID,919.101,VALID,0,VALID,94.6371,VALID,0,VALID,19.3533,VALID,126,VALID,0.834375,
2014-01-16, 01:42:05,VALID,919.079,VALID,0,VALID,94.6523,VALID,0,VALID,19.3533,VALID,128,VALID,0.560547,
2014-01-16, 01:43:05,VALID,919.077,VALID,0,VALID,94.6447,VALID,0,VALID,19.3338,VALID,126,VALID,1.08477,
2014-01-16, 01:44:05,VALID,919.015,VALID,0,VALID,94.6676,VALID,0,VALID,19.3742,VALID,116,VALID,0.762891,
2014-01-16, 01:45:05,VALID,919.007,VALID,0,VALID,94.6676,VALID,0,VALID,19.3728,VALID,117,VALID,1.20469,
2014-01-16, 01:46:05,VALID,918.985,VALID,0,VALID,94.6752,VALID,0,VALID,19.3728,VALID,109,VALID,0.6375,
2014-01-16, 01:47:05,VALID,918.971,VALID,0,VALID,94.6752,VALID,0,VALID,19.3728,VALID,113,VALID,0.575391,
2014-01-16, 01:48:05,VALID,918.931,VALID,0,VALID,94.6905,VALID,0,VALID,19.3518,VALID,124,VALID,0.482031,
2014-01-16, 01:49:05,VALID,918.914,VALID,0,VALID,94.6752,VALID,0,VALID,19.3323,VALID,110,VALID,1.12617,
2014-01-16, 01:50:05,VALID,918.886,VALID,0,VALID,94.6981,VALID,0,VALID,19.3533,VALID,123,VALID,1.29727,
2014-01-16, 01:51:05,VALID,918.884,VALID,0,VALID,94.7057,VALID,0,VALID,19.3728,VALID,100,VALID,0.340234,
2014-01-16, 01:52:05,VALID,918.852,VALID,0,VALID,94.6752,VALID,0,VALID,19.3728,VALID,127,VALID,0.708203,
2014-01-16, 01:53:05,VALID,918.852,VALID,0,VALID,94.6981,VALID,0,VALID,19.3518,VALID,123,VALID,0.625,
2014-01-16, 01:54:05,VALID,918.842,VALID,0,VALID,94.6752,VALID,0,VALID,19.3518,VALID,118,VALID,0.646094,
2014-01-16, 01:55:05,VALID,918.831,VALID,0,VALID,94.6523,VALID,0,VALID,19.3323,VALID,119,VALID,0.775391,
2014-01-16, 01:56:05,VALID,918.82,VALID,0,VALID,94.6066,VALID,0,VALID,19.3323,VALID,119,VALID,0.718359,
2014-01-16, 01:57:05,VALID,918.792,VALID,0,VALID,94.6218,VALID,0.107441,VALID,19.3128,VALID,120,VALID,0.498047,
2014-01-16, 01:58:05,VALID,918.797,VALID,0,VALID,94.6676,VALID,0,VALID,19.3128,VALID,127,VALID,1.28828,
2014-01-16, 01:59:05,VALID,918.749,VALID,0,VALID,94.6905,VALID,0,VALID,19.3143,VALID,142,VALID,0.990625,
2014-01-16, 02:00:05,VALID,918.745,VALID,0,VALID,94.7209,VALID,0,VALID,19.3143,VALID,143,VALID,0.735156,
2014-01-16, 02:01:05,VALID,918.741,VALID,0,VALID,94.7057,VALID,0,VALID,19.2948,VALID,143,VALID,0.612109,
2014-01-16, 02:02:05,VALID,918.675,VALID,0,VALID,94.7209,VALID,0,VALID,19.2962,VALID,139,VALID,0.498437,
2014-01-16, 02:03:05,VALID,918.659,VALID,0,VALID,94.7286,VALID,0,VALID,19.2753,VALID,132,VALID,0.624609,
2014-01-16, 02:04:05,VALID,918.651,VALID,0,VALID,94.6981,VALID,0,VALID,19.2558,VALID,133,VALID,0.774609,
2014-01-16, 02:05:05,VALID,918.64,VALID,0,VALID,94.7209,VALID,0,VALID,19.2572,VALID,133,VALID,0.555859,
2014-01-16, 02:06:05,VALID,918.604,VALID,0,VALID,94.7362,VALID,0,VALID,19.2377,VALID,133,VALID,0.428125,
2014-01-16, 02:07:05,VALID,918.582,VALID,0,VALID,94.7133,VALID,0,VALID,19.1778,VALID,111,VALID,0.698828,
2014-01-16, 02:08:05,VALID,918.613,VALID,0,VALID,94.7133,VALID,0,VALID,19.1583,VALID,100,VALID,0.490234,
2014-01-16, 02:09:05,VALID,918.609,VALID,0,VALID,94.8429,VALID,0,VALID,19.0998,VALID,108,VALID,0.896094,
2014-01-16, 02:10:05,VALID,918.607,VALID,0,VALID,94.9496,VALID,0,VALID,19.0998,VALID,121,VALID,0.939453,
2014-01-16, 02:11:05,VALID,918.602,VALID,0,VALID,95.0564,VALID,0,VALID,19.0803,VALID,118,VALID,0.775391,
2014-01-16, 02:12:05,VALID,918.609,VALID,0,VALID,95.1021,VALID,0,VALID,19.0608,VALID,124,VALID,0.910547,
2014-01-16, 02:13:05,VALID,918.575,VALID,0,VALID,95.1631,VALID,0,VALID,19.0803,VALID,124,VALID,0.702734,
2014-01-16, 02:14:05,VALID,918.58,VALID,0,VALID,95.1402,VALID,0,VALID,19.0413,VALID,122,VALID,0.703125,
2014-01-16, 02:15:05,VALID,918.581,VALID,0,VALID,95.1326,VALID,0,VALID,18.9828,VALID,117,VALID,0.80625,
2014-01-16, 02:16:05,VALID,918.575,VALID,0,VALID,95.186,VALID,0,VALID,18.9828,VALID,117,VALID,0.964453,
2014-01-16, 02:17:05,VALID,918.576,VALID,0,VALID,95.2546,VALID,0,VALID,18.9633,VALID,117,VALID,0.823047,
2014-01-16, 02:18:05,VALID,918.578,VALID,0,VALID,95.3613,VALID,0,VALID,18.9828,VALID,117,VALID,0.817578,
2014-01-16, 02:19:05,VALID,918.59,VALID,0,VALID,95.3918,VALID,0,VALID,18.9842,VALID,117,VALID,0.694141,
2014-01-16, 02:20:05,VALID,918.621,VALID,0,VALID,95.4375,VALID,0,VALID,18.9842,VALID,117,VALID,0.762109,
2014-01-16, 02:21:04,VALID,918.631,VALID,0,VALID,95.4528,VALID,0,VALID,18.9243,VALID,118,VALID,0.311328,
2014-01-16, 02:22:04,VALID,918.65,VALID,0,VALID,95.468,VALID,0,VALID,18.9438,VALID,118,VALID,0.311719,
2014-01-16, 02:23:04,VALID,918.656,VALID,0,VALID,95.4604,VALID,0,VALID,18.9452,VALID,120,VALID,0.665625,
2014-01-16, 02:24:04,VALID,918.645,VALID,0,VALID,95.4909,VALID,0,VALID,18.9243,VALID,121,VALID,0.644922,
2014-01-16, 02:25:04,VALID,918.629,VALID,0,VALID,95.4985,VALID,0,VALID,18.8853,VALID,120,VALID,0.729688,
2014-01-16, 02:26:04,VALID,918.622,VALID,0,VALID,95.5595,VALID,0,VALID,18.9062,VALID,117,VALID,0.828125,
2014-01-16, 02:27:04,VALID,918.621,VALID,0,VALID,95.5671,VALID,0,VALID,18.8853,VALID,124,VALID,0.607813,
2014-01-16, 02:28:04,VALID,918.608,VALID,0,VALID,95.6053,VALID,0,VALID,18.8463,VALID,124,VALID,0.594922,
2014-01-16, 02:29:04,VALID,918.602,VALID,0,VALID,95.6357,VALID,0,VALID,18.8672,VALID,125,VALID,0.808984,
2014-01-16, 02:30:04,VALID,918.626,VALID,0,VALID,95.59,VALID,0,VALID,18.8059,VALID,125,VALID,0.0371094,
2014-01-16, 02:31:04,VALID,918.63,VALID,0,VALID,95.6434,VALID,0.107441,VALID,18.8268,VALID,125,VALID,0.630469,
2014-01-16, 02:32:04,VALID,918.609,VALID,0,VALID,95.6815,VALID,0,VALID,18.8268,VALID,125,VALID,0.649219,
2014-01-16, 02:33:04,VALID,918.626,VALID,0,VALID,95.7425,VALID,0,VALID,18.8449,VALID,125,VALID,0.531641,
2014-01-16, 02:34:04,VALID,918.62,VALID,0,VALID,95.7958,VALID,0,VALID,18.8853,VALID,125,VALID,0.680859,
2014-01-16, 02:35:04,VALID,918.611,VALID,0,VALID,95.773,VALID,0,VALID,18.8449,VALID,125,VALID,0.552344,
2014-01-16, 02:36:04,VALID,918.616,VALID,0,VALID,95.7349,VALID,0,VALID,18.8449,VALID,125,VALID,1.09609,
2014-01-16, 02:37:04,VALID,918.594,VALID,0,VALID,95.7577,VALID,0,VALID,18.8644,VALID,124,VALID,1.25625,
2014-01-16, 02:38:04,VALID,918.54,VALID,0,VALID,95.7806,VALID,0,VALID,18.9048,VALID,124,VALID,1.33164,
2014-01-16, 02:39:04,VALID,918.539,VALID,0,VALID,95.7806,VALID,0,VALID,18.9034,VALID,124,VALID,1.14961,
2014-01-16, 02:40:04,VALID,918.524,VALID,0,VALID,95.7501,VALID,0,VALID,18.9229,VALID,141,VALID,1.71133,
2014-01-16, 02:41:04,VALID,918.506,VALID,0,VALID,95.6739,VALID,0,VALID,18.9229,VALID,129,VALID,0.707031,
2014-01-16, 02:42:04,VALID,918.469,VALID,0,VALID,95.4985,VALID,0,VALID,18.9048,VALID,116,VALID,1.47695,
2014-01-16, 02:43:04,VALID,918.457,VALID,0,VALID,95.3994,VALID,0,VALID,18.9243,VALID,118,VALID,1.16562,
2014-01-16, 02:44:04,VALID,918.446,VALID,0,VALID,95.3461,VALID,0,VALID,18.8839,VALID,117,VALID,1.6418,
2014-01-16, 02:45:04,VALID,918.479,VALID,0,VALID,95.2698,VALID,0,VALID,18.9633,VALID,126,VALID,1.29531,
2014-01-16, 02:46:04,VALID,918.465,VALID,0,VALID,95.1555,VALID,0,VALID,19.0023,VALID,127,VALID,0.976953,
2014-01-16, 02:47:04,VALID,918.453,VALID,0,VALID,94.9954,VALID,0.107441,VALID,18.9828,VALID,125,VALID,1.1625,
2014-01-16, 02:48:04,VALID,918.43,VALID,0,VALID,94.9115,VALID,0,VALID,18.9619,VALID,140,VALID,1.30117,
2014-01-16, 02:49:04,VALID,918.427,VALID,0,VALID,94.9192,VALID,0,VALID,19.0218,VALID,145,VALID,1.56211,
2014-01-16, 02:50:04,VALID,918.352,VALID,0,VALID,94.8963,VALID,0.107441,VALID,19.0203,VALID,159,VALID,1.03672,
2014-01-16, 02:51:04,VALID,918.368,VALID,0,VALID,94.82,VALID,0,VALID,19.0203,VALID,138,VALID,1.62617,
2014-01-16, 02:52:04,VALID,918.371,VALID,0,VALID,94.7819,VALID,0.107441,VALID,19.0398,VALID,141,VALID,1.29766,
2014-01-16, 02:53:04,VALID,918.355,VALID,0,VALID,94.7133,VALID,0,VALID,19.0413,VALID,152,VALID,1.05625,
2014-01-16, 02:54:04,VALID,918.348,VALID,0,VALID,94.66,VALID,0,VALID,19.0008,VALID,159,VALID,1.01094,
2014-01-16, 02:55:04,VALID,918.339,VALID,0,VALID,94.6066,VALID,0,VALID,19.0413,VALID,137,VALID,1.09883,
2014-01-16, 02:56:04,VALID,918.325,VALID,0,VALID,94.5913,VALID,0.107441,VALID,19.0023,VALID,138,VALID,1.04375,
2014-01-16, 02:57:04,VALID,918.332,VALID,0,VALID,94.6295,VALID,0,VALID,19.0008,VALID,149,VALID,0.9875,
2014-01-16, 02:58:04,VALID,918.324,VALID,0,VALID,94.5685,VALID,0,VALID,19.0023,VALID,135,VALID,1.29023,
2014-01-16, 02:59:04,VALID,918.331,VALID,0,VALID,94.5609,VALID,0,VALID,19.0023,VALID,147,VALID,1.26484,
2014-01-16, 03:00:04,VALID,918.378,VALID,0,VALID,94.5151,VALID,0,VALID,18.9828,VALID,145,VALID,1.20625,
2014-01-16, 03:01:04,VALID,918.384,VALID,0,VALID,94.5075,VALID,0,VALID,18.9828,VALID,144,VALID,1.15156,
2014-01-16, 03:02:04,VALID,918.352,VALID,0,VALID,94.5075,VALID,0,VALID,18.9828,VALID,146,VALID,1.10742,
2014-01-16, 03:03:04,VALID,918.345,VALID,0,VALID,94.5456,VALID,0,VALID,18.9619,VALID,146,VALID,0.996094,
2014-01-16, 03:04:04,VALID,918.333,VALID,0,VALID,94.538,VALID,0,VALID,18.9619,VALID,150,VALID,0.998828,
2014-01-16, 03:05:04,VALID,918.331,VALID,0,VALID,94.5227,VALID,0,VALID,18.9814,VALID,150,VALID,0.857031,
2014-01-16, 03:06:04,VALID,918.301,VALID,0,VALID,94.477,VALID,0,VALID,18.9619,VALID,134,VALID,1.18398,
2014-01-16, 03:07:04,VALID,918.305,VALID,0,VALID,94.4999,VALID,0.107441,VALID,18.9633,VALID,131,VALID,1.01406,
2014-01-16, 03:08:04,VALID,918.271,VALID,0,VALID,94.477,VALID,0,VALID,18.9438,VALID,131,VALID,0.976953,
2014-01-16, 03:09:04,VALID,918.262,VALID,0,VALID,94.599,VALID,0,VALID,18.9438,VALID,129,VALID,0.865234,
2014-01-16, 03:10:04,VALID,918.261,VALID,0,VALID,94.5685,VALID,0,VALID,18.9048,VALID,124,VALID,0.996875,
2014-01-16, 03:11:04,VALID,918.274,VALID,0,VALID,94.4541,VALID,0.107441,VALID,18.8449,VALID,124,VALID,0.873047,
2014-01-16, 03:12:04,VALID,918.275,VALID,0,VALID,94.6371,VALID,0,VALID,18.8254,VALID,128,VALID,0.782422,
2014-01-16, 03:13:04,VALID,918.272,VALID,0,VALID,94.6981,VALID,0,VALID,18.8059,VALID,118,VALID,0.898047,
2014-01-16, 03:14:04,VALID,918.251,VALID,0,VALID,94.7362,VALID,0,VALID,18.8059,VALID,119,VALID,1.22656,
2014-01-16, 03:15:04,VALID,918.242,VALID,0,VALID,94.7667,VALID,0.107441,VALID,18.8059,VALID,113,VALID,1.0543,
2014-01-16, 03:16:04,VALID,918.208,VALID,0,VALID,94.7514,VALID,0.107441,VALID,18.7669,VALID,110,VALID,0.914844,
2014-01-16, 03:17:04,VALID,918.229,VALID,0,VALID,94.7972,VALID,0,VALID,18.7669,VALID,117,VALID,0.810547,
2014-01-16, 03:18:04,VALID,918.224,VALID,0,VALID,94.8353,VALID,0,VALID,18.7474,VALID,118,VALID,0.790625,
2014-01-16, 03:19:04,VALID,918.253,VALID,0,VALID,94.8277,VALID,0,VALID,18.7474,VALID,120,VALID,1.06836,
2014-01-16, 03:20:04,VALID,918.249,VALID,0,VALID,94.8582,VALID,0,VALID,18.7878,VALID,131,VALID,1.20195,
2014-01-16, 03:21:04,VALID,918.263,VALID,0,VALID,94.8048,VALID,0,VALID,18.7878,VALID,104,VALID,0.898828,
2014-01-16, 03:22:04,VALID,918.258,VALID,0,VALID,94.7362,VALID,0,VALID,18.7279,VALID,107,VALID,0.818359,
2014-01-16, 03:23:04,VALID,918.262,VALID,0,VALID,94.7514,VALID,0,VALID,18.7293,VALID,97,VALID,1.23672,
2014-01-16, 03:24:04,VALID,918.282,VALID,0,VALID,94.8124,VALID,0,VALID,18.7293,VALID,103,VALID,1.14414,
2014-01-16, 03:25:04,VALID,918.286,VALID,0,VALID,94.881,VALID,0,VALID,18.7293,VALID,104,VALID,0.875,
2014-01-16, 03:26:04,VALID,918.284,VALID,0,VALID,94.9344,VALID,0,VALID,18.7293,VALID,116,VALID,0.958984,
2014-01-16, 03:27:04,VALID,918.284,VALID,0,VALID,94.9496,VALID,0,VALID,18.7098,VALID,123,VALID,1.2707,
2014-01-16, 03:28:04,VALID,918.263,VALID,0,VALID,94.9954,VALID,0,VALID,18.7098,VALID,122,VALID,1.23984,
2014-01-16, 03:29:04,VALID,918.283,VALID,0,VALID,95.0335,VALID,0,VALID,18.6694,VALID,123,VALID,1.40391,
2014-01-16, 03:30:04,VALID,918.275,VALID,0,VALID,95.064,VALID,0,VALID,18.6889,VALID,121,VALID,1.30234,
2014-01-16, 03:31:04,VALID,918.232,VALID,0,VALID,95.0716,VALID,0,VALID,18.6903,VALID,116,VALID,1.33086,
2014-01-16, 03:32:04,VALID,918.246,VALID,0,VALID,95.0716,VALID,0,VALID,18.6903,VALID,119,VALID,1.1207,
2014-01-16, 03:33:04,VALID,918.249,VALID,0,VALID,95.064,VALID,0,VALID,18.6903,VALID,104,VALID,0.835938,
2014-01-16, 03:34:04,VALID,918.253,VALID,0,VALID,95.0564,VALID,0,VALID,18.6708,VALID,124,VALID,1.38164,
2014-01-16, 03:35:04,VALID,918.242,VALID,0,VALID,95.064,VALID,0,VALID,18.6708,VALID,140,VALID,1.06602,
2014-01-16, 03:36:04,VALID,918.218,VALID,0,VALID,95.1021,VALID,0,VALID,18.6903,VALID,132,VALID,1,
2014-01-16, 03:37:04,VALID,918.235,VALID,0,VALID,95.0716,VALID,0,VALID,18.6708,VALID,125,VALID,0.7125,
2014-01-16, 03:38:04,VALID,918.25,VALID,0,VALID,95.1402,VALID,0,VALID,18.6903,VALID,121,VALID,1.17656,
2014-01-16, 03:39:04,VALID,918.228,VALID,0,VALID,95.1174,VALID,0,VALID,18.6708,VALID,109,VALID,0.323828,
2014-01-16, 03:40:04,VALID,918.217,VALID,0,VALID,95.1555,VALID,0,VALID,18.6903,VALID,119,VALID,0.698047,
2014-01-16, 03:41:04,VALID,918.212,VALID,0,VALID,95.1707,VALID,0,VALID,18.6903,VALID,121,VALID,0.126953,
2014-01-16, 03:42:04,VALID,918.198,VALID,0,VALID,95.1097,VALID,0,VALID,18.6708,VALID,121,VALID,0.445703,